Location: Strawberry
(45.6646°N, 111.9596°W)
Time: 14:03:11
(UTC+00:00)

AO-27 - Pass Details

Date: 09 December 2022
Orbit: 784 x 798 km, 98.9° (Epoch: 01 February)

Event Time Altitude Azimuth Distance (km) Brightness Sun altitude
Exits shadow 01:51:43 14° 13° (NNE) 2,085 9.6 -21.5°
Drops below altitude 10° 01:52:38 10° 6° (N) 2,381 10.0 -21.6°
Sets 01:55:15 0° 355° (N) 3,316 10.8 -22.1°
